Date String (YYYY-MM-DD hh:mm:ss) UTC,Instrument flags,Ambient pressure (hPa),Sample flow (lpm),Bypass flow (lpm),Sample temperature (°C),Ambient temperature (°C),ASC tube jacket temperature (°C),LED temperature (°C),Box temperature (°C),Sample RH (%),Span deviation,Mass concentration (μg/m³),Mass concentration (μg/m³),Mass concentration (μg/m³)
DateTimeUTC,F1_M11,P_M11,Q1_M11,Q2_M11,T1_M11,T2_M11,T3_M11,T4_M11,T5_M11,U1_M11,ZSPAN_M11,X2_M11,X0_M11,X1_M11
2022-03-19 15:00:00,,0827.5,5.01,0.00,23.2,22.4,00.0,32.1,25.0,09.1,0000.0,0003.26,0008.02,0001.96
2022-03-19 15:01:00,,0827.2,4.99,0.00,23.2,22.4,00.0,32.1,25.0,08.8,0000.0,0003.26,0008.03,0001.96
2022-03-19 15:02:00,,0827.1,5.00,0.00,23.2,22.4,00.0,32.1,25.0,08.6,0000.0,0003.22,0007.95,0001.96
2022-03-19 15:03:00,,0827.1,5.01,0.00,23.2,22.4,00.0,32.1,25.0,08.5,0000.0,0003.18,0007.75,0001.94
2022-03-19 15:04:00,,0827.2,5.00,0.00,23.2,22.4,00.0,32.1,25.0,08.6,0000.0,0003.18,0007.65,0001.93
2022-03-19 15:05:00,,0827.1,5.00,0.00,23.2,22.4,00.0,32.1,25.0,08.9,0000.0,0003.19,0007.68,0001.93
2022-03-19 15:06:00,,0827.1,5.01,0.00,23.2,22.4,00.0,32.1,25.0,09.1,0000.0,0003.20,0007.67,0001.93
2022-03-19 15:07:00,,0827.3,5.00,0.00,23.2,22.4,00.0,32.1,25.0,08.9,0000.0,0003.15,0007.10,0001.92
2022-03-19 15:08:00,,0827.4,5.00,0.00,23.2,22.4,00.0,32.1,25.0,08.8,0000.0,0003.14,0006.91,0001.93
2022-03-19 15:09:00,,0827.4,5.00,0.00,23.2,22.4,00.0,32.1,25.0,08.9,0000.0,0003.16,0007.07,0001.94
2022-03-19 15:10:00,,0827.7,5.01,0.00,23.2,22.4,00.0,32.1,25.0,09.4,0000.0,0003.20,0006.69,0001.94
2022-03-19 15:11:00,,0827.5,4.99,0.00,23.2,22.4,00.0,32.1,25.0,08.9,0000.0,0003.11,0006.03,0001.93
2022-03-19 15:12:00,,0827.3,5.02,0.00,23.2,22.4,00.0,32.1,25.0,09.6,0000.0,0003.08,0005.72,0001.93
2022-03-19 15:13:00,,0827.4,5.00,0.00,23.2,22.4,00.0,32.1,25.0,09.4,0000.0,0003.07,0006.00,0001.93
2022-03-19 15:14:00,,0827.4,5.01,0.00,23.2,22.4,00.0,32.1,25.0,09.0,0000.0,0003.08,0006.13,0001.93
2022-03-19 15:15:00,,0827.4,5.00,0.00,23.2,22.4,00.0,32.1,25.0,08.9,0000.0,0003.10,0006.29,0001.92
2022-03-19 15:16:00,,0827.4,4.99,0.00,23.2,22.4,00.0,32.1,25.0,08.6,0000.0,0003.14,0006.50,0001.93
2022-03-19 15:17:00,,0827.4,4.99,0.00,23.3,22.4,00.0,32.2,25.0,08.6,0000.0,0003.10,0006.32,0001.91
2022-03-19 15:18:00,,0827.4,5.01,0.00,23.3,22.5,00.0,32.2,25.1,08.8,0000.0,0003.13,0006.53,0001.89
2022-03-19 15:19:00,,0827.4,5.01,0.00,23.3,22.5,00.0,32.2,25.1,08.8,0000.0,0003.15,0006.71,0001.89
2022-03-19 15:20:00,,0827.4,4.99,0.00,23.3,22.5,00.0,32.2,25.1,08.9,0000.0,0003.12,0006.43,0001.88
2022-03-19 15:21:00,,0827.4,5.01,0.00,23.3,22.5,00.0,32.2,25.1,08.8,0000.0,0003.07,0006.10,0001.87
2022-03-19 15:22:00,,0827.4,5.00,0.00,23.3,22.5,00.0,32.2,25.1,08.6,0000.0,0003.13,0006.34,0001.86
2022-03-19 15:23:00,,0827.4,4.99,0.00,23.3,22.5,00.0,32.2,25.1,08.5,0000.0,0003.19,0006.63,0001.87
2022-03-19 15:24:00,,0827.4,5.00,0.00,23.3,22.5,00.0,32.2,25.1,08.8,0000.0,0003.17,0006.22,0001.86
2022-03-19 15:25:00,,0827.4,5.00,0.00,23.3,22.5,00.0,32.2,25.1,08.7,0000.0,0003.17,0006.10,0001.86
2022-03-19 15:26:00,,0827.4,5.00,0.00,23.4,22.5,00.0,32.2,25.1,08.8,0000.0,0003.13,0005.90,0001.85
2022-03-19 15:27:00,,0827.4,4.99,0.00,23.4,22.5,00.0,32.2,25.1,08.9,0000.0,0003.10,0005.85,0001.83
2022-03-19 15:28:00,,0827.4,5.01,0.00,23.4,22.6,00.0,32.3,25.2,08.6,0000.0,0003.06,0005.82,0001.82
2022-03-19 15:29:00,,0827.4,5.02,0.00,23.4,22.6,00.0,32.3,25.2,08.6,0000.0,0003.01,0005.59,0001.82
2022-03-19 15:30:00,,0827.4,4.98,0.00,23.4,22.6,00.0,32.3,25.2,09.0,0000.0,0003.01,0005.55,0001.82
2022-03-19 15:31:00,,0827.4,5.00,0.00,23.4,22.6,00.0,32.3,25.2,09.1,0000.0,0003.07,0005.82,0001.83
2022-03-19 15:32:00,,0827.4,5.00,0.00,23.4,22.6,00.0,32.3,25.2,08.9,0000.0,0003.09,0005.95,0001.83
2022-03-19 15:33:00,,0827.4,5.01,0.00,23.4,22.6,00.0,32.3,25.2,09.3,0000.0,0003.04,0006.02,0001.83
2022-03-19 15:34:00,,0827.4,5.00,0.00,23.4,22.6,00.0,32.3,25.2,09.3,0000.0,0002.99,0006.69,0001.83
2022-03-19 15:35:00,,0827.4,5.00,0.00,23.5,22.7,00.0,32.3,25.3,08.7,0000.0,0002.98,0006.75,0001.82
2022-03-19 15:36:00,,0827.4,5.00,0.00,23.5,22.7,00.0,32.3,25.3,09.4,0000.0,0002.93,0006.59,0001.83
2022-03-19 15:37:00,,0827.4,5.01,0.00,23.5,22.7,00.0,32.4,25.3,09.6,0000.0,0002.94,0006.70,0001.85
2022-03-19 15:38:00,,0827.4,5.00,0.00,23.5,22.7,00.0,32.4,25.3,09.5,0000.0,0002.89,0006.65,0001.87
2022-03-19 15:39:00,,0827.4,5.00,0.00,23.5,22.7,00.0,32.4,25.3,09.7,0000.0,0002.94,0006.65,0001.88
2022-03-19 15:40:00,,0827.4,4.99,0.00,23.5,22.7,00.0,32.4,25.3,10.2,0000.0,0003.03,0006.90,0001.91
2022-03-19 15:41:00,,0827.4,4.99,0.00,23.5,22.7,00.0,32.4,25.3,09.6,0000.0,0003.01,0006.80,0001.93
2022-03-19 15:42:00,,0827.4,4.99,0.00,23.5,22.7,00.0,32.4,25.4,09.6,0000.0,0002.94,0006.48,0001.94
2022-03-19 15:43:00,,0827.4,5.02,0.00,23.6,22.8,00.0,32.4,25.4,09.8,0000.0,0002.95,0006.98,0001.96
2022-03-19 15:44:00,,0827.5,5.00,0.00,23.6,22.8,00.0,32.4,25.4,10.2,0000.0,0002.98,0006.93,0001.99
2022-03-19 15:45:00,,0827.4,4.99,0.00,23.6,22.8,00.0,32.4,25.4,09.8,0000.0,0002.95,0006.10,0001.98
2022-03-19 15:46:00,,0827.4,5.00,0.00,23.6,22.8,00.0,32.5,25.4,10.3,0000.0,0003.02,0006.25,0001.99
2022-03-19 15:47:00,,0827.4,5.00,0.00,23.6,22.8,00.0,32.5,25.4,09.9,0000.0,0003.05,0006.29,0002.00
2022-03-19 15:48:00,,0827.4,5.01,0.00,23.6,22.8,00.0,32.5,25.5,09.9,0000.0,0003.06,0006.15,0002.01
2022-03-19 15:49:00,,0827.4,5.01,0.00,23.6,22.8,00.0,32.5,25.5,10.2,0000.0,0003.11,0006.12,0002.01
2022-03-19 15:50:00,,0827.4,5.00,0.00,23.6,22.8,00.0,32.5,25.4,10.2,0000.0,0003.16,0006.75,0002.02
2022-03-19 15:51:00,,0827.4,4.99,0.00,23.6,22.8,00.0,32.5,25.4,10.2,0000.0,0003.13,0006.84,0002.02
2022-03-19 15:52:00,,0827.4,5.00,0.00,23.6,22.8,00.0,32.5,25.4,10.2,0000.0,0003.15,0006.87,0002.02
2022-03-19 15:53:00,,0827.4,5.00,0.00,23.6,22.8,00.0,32.5,25.4,10.2,0000.0,0003.20,0007.12,0002.03
2022-03-19 15:54:00,,0827.4,4.99,0.00,23.6,22.8,00.0,32.5,25.4,10.3,0000.0,0003.21,0006.81,0002.03
2022-03-19 15:55:00,,0827.4,5.01,0.00,23.6,22.8,00.0,32.6,25.4,10.6,0000.0,0003.19,0006.75,0002.03
2022-03-19 15:56:00,,0827.4,5.01,0.00,23.6,22.8,00.0,32.5,25.3,10.7,0000.0,0003.21,0007.30,0002.06
2022-03-19 15:57:00,,0827.4,4.99,0.00,23.6,22.7,00.0,32.5,25.3,10.7,0000.0,0003.22,0007.20,0002.08
2022-03-19 15:58:00,,0827.3,4.99,0.00,23.6,22.7,00.0,32.5,25.2,10.5,0000.0,0003.27,0007.37,0002.09
2022-03-19 15:59:00,,0827.2,5.01,0.00,23.5,22.7,00.0,32.5,25.3,10.4,0000.0,0003.29,0007.47,0002.08
